Pampa, TX

12:16 PM CDT on September 29, 2016 (GMT -0500)
Perry Lefors

Weather History for KPPA - January, 2013

Change the Weather History Date:

Sunday, January 27, 2013

  Actual Average Record
Temperature  
Mean Temperature 56 °F -  
Max Temperature 71 °F 49 °F 73 °F (2015)
Min Temperature 41 °F 23 °F 6 °F (1972)
Degree Days  
Heating Degree Days 9    
Growing Degree Days 6 (Base 50)    
Moisture  
Dew Point 35 °F    
Average Humidity 56    
Maximum Humidity 100    
Minimum Humidity 23    
Precipitation  
Precipitation 0.00 in - - ()
Sea Level Pressure  
Sea Level Pressure 29.85 in    
Wind  
Wind Speed 19 mph (SSW)    
Max Wind Speed 30 mph    
Max Gust Speed 39 mph    
Visibility 9 miles    
Events      
Averages and records for this station are not official NWS values.
T = Trace of Precipitation, MM = Missing Value Source: NWS Daily Summary

Daily Weather History Graph

Daily Weather History Graph

Search for Another Location

Airport or City:

Trip Planner

Search our weather history database for the weather conditions in past years. The results will help you decide how hot, cold, wet, or windy it might be!

Date:

Astronomy

Jan. 27, 2013 Rise Set
Actual Time 7:47 AM CST 6:06 PM CST
Civil Twilight 7:20 AM CST 6:33 PM CST
Nautical Twilight 6:49 AM CST 7:04 PM CST
Astronomical Twilight 6:19 AM CST 7:34 PM CST
Moon 6:59 PM CST (1/27) 7:44 AM CST (1/27)
Length of Visible Light 11h 13m
Length of Day
10h 19m
Full, 100% of the Moon is Illuminated
Jan 27
Full
Feb 3
Last Quarter
Feb 10
New
Feb 17
First Quarter
Feb 25
Full

Hourly Weather History & Observations

Time (CST) Temp. Windchill Dew Point Humidity Pressure Visibility Wind Dir Wind Speed Gust Speed Precip Events Conditions
12:15 AM 46.4 °F 37.9 °F 33.8 °F 62% 29.92 in 10.0 mi South 25.3 mph 31.1 mph N/A   Mostly Cloudy
12:35 AM 46.4 °F 38.3 °F 35.6 °F 66% 29.92 in 10.0 mi South 23.0 mph 28.8 mph N/A   Mostly Cloudy
12:55 AM 46.4 °F 39.0 °F 35.6 °F 66% 29.91 in 10.0 mi South 19.6 mph 25.3 mph N/A   Mostly Cloudy
1:15 AM 44.6 °F 36.4 °F 35.6 °F 71% 29.91 in 10.0 mi South 20.7 mph 25.3 mph N/A   Scattered Clouds
1:35 AM 44.6 °F 36.6 °F 35.6 °F 71% 29.91 in 10.0 mi South 19.6 mph - N/A   Clear
1:55 AM 42.8 °F 34.5 °F 33.8 °F 70% 29.90 in 10.0 mi South 18.4 mph - N/A   Clear
2:15 AM 42.8 °F 34.8 °F 35.6 °F 76% 29.90 in 10.0 mi South 17.3 mph - N/A   Scattered Clouds
2:35 AM 42.8 °F 34.8 °F 35.6 °F 76% 29.89 in 10.0 mi South 17.3 mph - N/A   Scattered Clouds
2:55 AM 42.8 °F 34.5 °F 35.6 °F 76% 29.89 in 10.0 mi South 18.4 mph 23.0 mph N/A   Scattered Clouds
3:15 AM 42.8 °F 34.5 °F 35.6 °F 76% 29.89 in 10.0 mi South 18.4 mph 23.0 mph N/A   Scattered Clouds
3:35 AM 42.8 °F 36.2 °F 35.6 °F 76% 29.89 in 10.0 mi South 12.7 mph - N/A   Scattered Clouds
3:55 AM 42.8 °F 35.1 °F 35.6 °F 76% 29.88 in 10.0 mi South 16.1 mph - N/A   Scattered Clouds
4:15 AM 42.8 °F 35.1 °F 35.6 °F 76% 29.87 in 10.0 mi South 16.1 mph - N/A   Clear
4:35 AM 42.8 °F 35.4 °F 35.6 °F 76% 29.87 in 10.0 mi South 15.0 mph - N/A   Scattered Clouds
4:55 AM 42.8 °F 35.4 °F 37.4 °F 81% 29.87 in 10.0 mi South 15.0 mph - N/A   Scattered Clouds
5:15 AM 42.8 °F 35.4 °F 37.4 °F 81% 29.86 in 10.0 mi South 15.0 mph - N/A   Scattered Clouds
5:35 AM 41.0 °F 33.5 °F 37.4 °F 87% 29.86 in 10.0 mi South 13.8 mph - N/A   Scattered Clouds
6:15 AM 41.0 °F 32.8 °F 37.4 °F 87% 29.86 in 10.0 mi South 16.1 mph - N/A   Clear
6:35 AM 42.8 °F 34.8 °F 39.2 °F 87% 29.86 in 7.0 mi South 17.3 mph - N/A   Scattered Clouds
6:55 AM 42.8 °F 35.1 °F 41.0 °F 93% 29.86 in 7.0 mi South 16.1 mph - N/A   Mostly Cloudy
7:15 AM 42.8 °F 36.2 °F 41.0 °F 93% 29.87 in 7.0 mi South 12.7 mph - N/A   Mostly Cloudy
7:35 AM 42.8 °F 36.2 °F 42.8 °F 100% 29.87 in 5.0 mi SSW 12.7 mph - N/A   Mostly Cloudy
7:55 AM 42.8 °F 35.8 °F 42.8 °F 100% 29.87 in 4.0 mi South 13.8 mph - N/A   Mostly Cloudy
8:15 AM 44.6 °F 37.8 °F 42.8 °F 93% 29.87 in 5.0 mi SSW 15.0 mph - N/A   Mostly Cloudy
8:35 AM 46.4 °F 40.1 °F 42.8 °F 87% 29.87 in 5.0 mi SSW 15.0 mph - N/A   Scattered Clouds
8:55 AM 46.4 °F 40.4 °F 44.6 °F 93% 29.87 in 5.0 mi SSW 13.8 mph - N/A   Scattered Clouds
9:15 AM 51.8 °F - 44.6 °F 76% 29.87 in 7.0 mi SSW 11.5 mph - N/A   Clear
9:35 AM 55.4 °F - 44.6 °F 67% 29.87 in 10.0 mi SW 21.9 mph 27.6 mph N/A   Scattered Clouds
9:55 AM 55.4 °F - 42.8 °F 63% 29.87 in 10.0 mi SW 21.9 mph 25.3 mph N/A   Mostly Cloudy
10:35 AM 60.8 °F - 41.0 °F 48% 29.87 in 10.0 mi WSW 29.9 mph 34.5 mph N/A   Scattered Clouds
10:55 AM 62.6 °F - 41.0 °F 45% 29.87 in 10.0 mi SW 27.6 mph 32.2 mph N/A   Clear
11:35 AM 64.4 °F - 35.6 °F 34% 29.86 in 10.0 mi WSW 25.3 mph 36.8 mph N/A   Clear
12:35 PM 68.0 °F - 33.8 °F 28% 29.83 in 10.0 mi SW 26.5 mph 35.7 mph N/A   Clear
1:15 PM 69.8 °F - 33.8 °F 27% 29.80 in 10.0 mi SW 27.6 mph 39.1 mph N/A   Clear
1:35 PM 69.8 °F - 33.8 °F 27% 29.79 in 10.0 mi WSW 26.5 mph 33.4 mph N/A   Clear
1:55 PM 69.8 °F - 33.8 °F 27% 29.79 in 10.0 mi WSW 28.8 mph 35.7 mph N/A   Clear
2:15 PM 69.8 °F - 33.8 °F 27% 29.78 in 10.0 mi WSW 26.5 mph 36.8 mph N/A   Clear
2:55 PM 71.6 °F - 32.0 °F 23% 29.78 in 10.0 mi WSW 26.5 mph 33.4 mph N/A   Clear
3:35 PM 71.6 °F - 32.0 °F 23% 29.78 in 10.0 mi SW 25.3 mph 35.7 mph N/A   Clear
3:55 PM 71.6 °F - 32.0 °F 23% 29.78 in 10.0 mi WSW 25.3 mph 32.2 mph N/A   Clear
4:15 PM 71.6 °F - 32.0 °F 23% 29.78 in 10.0 mi WSW 25.3 mph 33.4 mph N/A   Clear
4:35 PM 69.8 °F - 32.0 °F 25% 29.78 in 10.0 mi WSW 25.3 mph 32.2 mph N/A   Clear
4:55 PM 69.8 °F - 30.2 °F 23% 29.78 in 10.0 mi WSW 21.9 mph 28.8 mph N/A   Clear
5:15 PM 68.0 °F - 32.0 °F 26% 29.78 in 10.0 mi WSW 19.6 mph 26.5 mph N/A   Clear
5:35 PM 68.0 °F - 32.0 °F 26% 29.79 in 10.0 mi SW 19.6 mph 26.5 mph N/A   Clear
5:55 PM 64.4 °F - 32.0 °F 30% 29.80 in 10.0 mi SW 13.8 mph 23.0 mph N/A   Clear
6:15 PM 60.8 °F - 32.0 °F 34% 29.80 in 10.0 mi SW 13.8 mph - N/A   Clear
6:35 PM 59.0 °F - 32.0 °F 36% 29.80 in 10.0 mi SW 13.8 mph - N/A   Clear
6:55 PM 59.0 °F - 32.0 °F 36% 29.81 in 10.0 mi SW 15.0 mph - N/A   Clear
7:15 PM 57.2 °F - 30.2 °F 36% 29.82 in 10.0 mi SW 15.0 mph - N/A   Clear
7:35 PM 57.2 °F - 32.0 °F 38% 29.83 in 10.0 mi SW 15.0 mph - N/A   Clear
7:55 PM 55.4 °F - 32.0 °F 41% 29.84 in 10.0 mi SW 12.7 mph - N/A   Clear
8:15 PM 53.6 °F - 32.0 °F 44% 29.84 in 10.0 mi SW 11.5 mph - N/A   Clear
8:35 PM 53.6 °F - 32.0 °F 44% 29.85 in 10.0 mi SW 13.8 mph - N/A   Clear
8:55 PM 51.8 °F - 32.0 °F 47% 29.85 in 10.0 mi SW 11.5 mph - N/A   Clear
9:15 PM 50.0 °F - 32.0 °F 50% 29.85 in 10.0 mi SW 12.7 mph - N/A   Clear
9:35 PM 51.8 °F - 32.0 °F 47% 29.85 in 10.0 mi SW 12.7 mph - N/A   Clear
10:15 PM 50.0 °F - 32.0 °F 50% 29.85 in 10.0 mi SW 15.0 mph - N/A   Clear
10:35 PM 51.8 °F - 32.0 °F 47% 29.85 in 10.0 mi SW 15.0 mph - N/A   Clear
10:55 PM 51.8 °F - 32.0 °F 47% 29.85 in 10.0 mi SW 15.0 mph - N/A   Clear
11:15 PM 53.6 °F - 32.0 °F 44% 29.86 in 10.0 mi SW 15.0 mph - N/A   Clear
11:35 PM 51.8 °F - 32.0 °F 47% 29.86 in 10.0 mi WSW 12.7 mph - N/A   Clear